Weather History for Monte Terminillo, Italy

Change the Weather History Date:

Wednesday, March 27, 2013

  Actual Average Record
Temperature  
Mean Temperature 30 °F -  
Max Temperature 32 °F 35 °F 48 °F (2003)
Min Temperature 28 °F 28 °F 17 °F (2002)
Degree Days  
Heating Degree Days 35    
Moisture  
Dew Point 30 °F    
Average Humidity 98    
Maximum Humidity 100    
Minimum Humidity 89    
Precipitation  
Precipitation 0.00 in - - ()
Sea Level Pressure  
Sea Level Pressure 29.60 in    
Wind  
Wind Speed 13 mph ()    
Max Wind Speed 28 mph    
Max Gust Speed -    
Visibility 0.4 miles    
Events Fog    
Averages and records for this station are not official NWS values.
T = Trace of Precipitation, MM = Missing Value Source: Averaged Metar Reports

Daily Weather History Graph

Daily Weather History Graph

Search for Another Location

Airport:

Trip Planner

Search our weather history database for the weather conditions in past years. The results will help you decide how hot, cold, wet, or windy it might be!

Date:

Astronomy

Mar. 27, 2013 Rise Set
Actual Time 5:59 AM CET 6:28 PM CET
Civil Twilight 5:30 AM CET 6:56 PM CET
Nautical Twilight 4:57 AM CET 7:29 PM CET
Astronomical Twilight 4:23 AM CET 8:04 PM CET
Moon 6:54 PM CET (3/27) 5:39 AM CET (3/27)
Length of Visible Light 13h 25m
Length of Day
12h 29m
Full, 100% of the Moon is Illuminated
Mar 27
Full
Apr 3
Last Quarter
Apr 10
New
Apr 18
First Quarter
Apr 25
Full

Hourly Weather History & Observations

Time (CET) Temp. Dew Point Humidity Pressure Visibility Wind Dir Wind Speed Gust Speed Precip Events Conditions
12:55 AM 30.2 °F 30.2 °F 100% 29.50 in 0.0 mi North - - N/A Fog Light Freezing Fog
1:00 AM 30 °F 30 °F 99%  in 0 mi WNW 27.6 mph - -  
1:55 AM 30.2 °F 30.2 °F 100% 29.50 in 0.0 mi North - - N/A Fog Light Freezing Fog
2:55 AM 28.4 °F 28.4 °F 100% 29.50 in 0.0 mi North - - N/A Fog Light Freezing Fog
3:55 AM 28.4 °F 28.4 °F 100% 29.50 in 0.0 mi North - - N/A Fog Light Freezing Fog
4:55 AM 28.4 °F 28.4 °F 100% 29.50 in 0.0 mi North - - N/A Fog Light Freezing Fog
5:55 AM 28.4 °F 28.4 °F 100% 29.53 in 0.0 mi North - - N/A Fog Light Freezing Fog
6:55 AM 28.4 °F 28.4 °F 100% 29.53 in 0.0 mi North - - N/A Fog Light Freezing Fog
7:00 AM 29 °F 28 °F 95%  in 0 mi WNW 11.5 mph - -  
7:55 AM 28.4 °F 28.4 °F 100% 29.53 in - North - - N/A   Partly Cloudy
8:55 AM 28.4 °F 28.4 °F 100% 29.56 in - North - - N/A   Scattered Clouds
9:55 AM 28.4 °F 28.4 °F 100% 29.56 in - North - - N/A   Scattered Clouds
10:55 AM 30.2 °F 28.4 °F 93% 29.59 in - North - - N/A   Mostly Cloudy
11:55 AM 30.2 °F 30.2 °F 100% 29.62 in - North - - N/A   Mostly Cloudy
12:55 PM 30.2 °F 28.4 °F 93% 29.62 in - North - - N/A   Mostly Cloudy
1:00 PM 31 °F 29 °F 89%  in 6 mi WNW 11.5 mph - -  
1:55 PM 32.0 °F 30.2 °F 93% 29.65 in - North - - N/A   Mostly Cloudy
3:55 PM 32.0 °F 32.0 °F 100% 29.65 in - North - - N/A   Mostly Cloudy
4:55 PM 32.0 °F 32.0 °F 100% 29.65 in - North - - N/A   Mostly Cloudy
5:55 PM 32.0 °F 32.0 °F 100% 29.68 in 0.0 mi North - - N/A Fog Fog
6:55 PM 32.0 °F 32.0 °F 100% 29.68 in 0.0 mi North - - N/A Fog Fog
7:00 PM 32 °F 32 °F 100%  in 0 mi WNW 13.8 mph - -  
7:55 PM 32.0 °F 32.0 °F 100% 29.71 in 0.0 mi North - - N/A Fog Fog
10:55 PM 32.0 °F 32.0 °F 100% 29.74 in 0.0 mi North - - N/A Fog Fog
11:55 PM 32.0 °F 32.0 °F 100% 29.77 in 0.0 mi North - - N/A Fog Fog